TELEOS-2 (56310 NORAD) Tracking and Keplerian Element Data

This shows tracking and keplerian element data for the satellite.

Feedback or suggestion? Click here.




ElementValue
Catalog56310
NameTELEOS-2
Epoch Orbit211
Epoch Day126.49900257
Epoch Year2023
RAAN207.0899
Inclination9.9852
Eccentricity0.0005436
Argument of Perigee192.6357
Mean Anonmoly167.3679
Mean Motion14.9445185
Decay Rate7.966E-05
L11 56310U 23057C 23126.49900257 .00007966 00000+0 65696-3 0 9994
L22 56310 9.9852 207.0899 0005436 192.6357 167.3679 14.94451850 2110



Live tracking and technical data element details for TELEOS-2 (NORAD 56310). TELEOS-2 can be tracked NOW for your location showing map with azimuth and elevation plus other details from your city location.







IsCatalogInMostPopularTable: catalog: 56310, numindb: 28
Update: records affected: 1



GetName: 56310 TELEOS-2

Hit Count: updated at: Wed, 07 Jun 2023 09:28:48 GMT